Location: Chilton Park
(37.7711°N, 100.0276°W)
Time: 03:33:41
(UTC+00:00)

Cosmos 1500 Rocket - Pass Details

Date: 02 July 2022
Orbit: 602 x 631 km, 82.5° (Epoch: 11 August)

Event Time Altitude Azimuth Distance (km) Brightness Sun altitude
Exits shadow 09:14:11 14° 148° (SSE) 1,745 5.6 -19.7°
Maximum altitude 09:17:23 32° 90° (E) 1,085 5.1 -19.4°
Drops below altitude 10° 09:21:20 10° 28° (NNE) 2,013 7.4 -18.9°
Sets 09:23:45 0° 18° (NNE) 2,928 8.3 -18.6°
